Regional Weather Roundup
Issued by NWS Kansas City/Pleasant Hill, MO

Home | Current Version | Previous Version | Graphics & Text | Print | Product List | Glossary Off
Versions: 1 2 3 4 5 6 7 8 9 10 11 12 13 14 15 16 17 18 19 20 21 22 23 24 25 26 27

000
ASUS43 KEAX 281310
RWREAX

WEATHER ROUNDUP FOR EASTERN KANSAS AND NORTHWEST MISSOURI
NATIONAL WEATHER SERVICE KANSAS CITY/PLEASANT HILL MO
800 AM CDT FRI APR 28 2017

KSZ040-057-103>105-MOZ028-029-037-043-281400-
...KANSAS CITY METROPOLITAN AREA...

CITY           SKY/WX    TMP DP  RH WIND       PRES   REMARKS
K.C. INTL      CLOUDY    51  50  96 E13       29.66S
K.C. DOWNTOWN  CLOUDY    53  51  93 E12       29.66S
LEES SUMMIT    CLOUDY    51  51 100 E12       29.69R
OLATHE - IXD   CLOUDY    52  50  93 E10       29.65R
OLATHE - OJC   LGT RAIN  51  51 100 SE12      29.66R
LAWRENCE       CLOUDY    52  52 100 E8        29.65R

$$

MOZ001>008-011>017-020>025-030>033-038>040-044>046-053-054-281400-
...NORTHERN AND CENTRAL MISSOURI...

CITY           SKY/WX    TMP DP  RH WIND       PRES   REMARKS
ST. JOSEPH     RAIN      49  49 100 E12       29.69S FOG
MOSBY          LGT RAIN  50  50 100 SE9       29.69F
WHITEMAN AFB   CLOUDY    52  52 100 E7        29.70S
CLINTON        LGT RAIN  54  54 100 E10       29.68F
SEDALIA        RAIN      53  53 100 SE16      29.72R FOG
WARSAW         NOT AVBL
CHILLICOTHE      N/A     50  49  96 E6        29.76R
KIRKSVILLE     LGT RAIN  44  43  96 NE9       29.79S

$$

MOZ041-047>049-056>058-063>065-088>090-097-281400-
...EASTERN AND SOUTHERN MISSOURI...

CITY           SKY/WX    TMP DP  RH WIND       PRES   REMARKS
ST. LOUIS INTL LGT RAIN  56  50  80 SE13      29.82F
SPIRIT OF STL  LGT RAIN  55  52  89 VRB5      29.82R
COLUMBIA       CLOUDY    53  52  96 SE12      29.77R
JEFFERSON CITY LGT RAIN  57  51  80 SE8       29.79R
ROLLA          LGT RAIN  54  53  97 S14G22    29.78R
OSAGE BEACH    LGT RAIN  55  54  96 S7        29.77R
SPRINGFIELD    LGT RAIN  55  54  96 E12       29.72F
BRANSON        CLOUDY    54  54 100 NE5       29.75F THUNDER
JOPLIN         LGT RAIN  59  55  87 E8        29.65F
WEST PLAINS    CLOUDY    56  51  84 E5        29.82R

$$

IAZ060-094-KSZ022-034>040-054-083-096-NEZ052-066-093-281400-
...KANSAS...SOUTHEAST NEBRASKA AND IOWA...

CITY           SKY/WX    TMP DP  RH WIND       PRES   REMARKS
TOPEKA         CLOUDY    52  52 100 E8        29.64R
MANHATTAN      LGT RAIN  51  49  92 E6        29.62R FOG
EMPORIA        CLOUDY    54  52  93 VRB5      29.61R
CHANUTE        LGT RAIN  58  53  84 SE17G24   29.62R
WICHITA        CLOUDY    54  52  93 CALM      29.60R
OMAHA          RAIN      38  32  79 NE13G20   29.81R WCI  30
LINCOLN        LGT RAIN  41  39  93 NE17G25   29.75R FOG     WCI  32
FALLS CITY     RAIN      44  43  96 NE14G26   29.67S FOG
LAMONI         LGT RAIN  41  37  86 NE16G23   29.76F WCI  33
DES MOINES     CLOUDY    39  29  67 NE12      29.86S WCI  32

$$





USA.gov is the U.S. government's official web portal to all federal, state and local government web resources and services.